Location: Newark
(54.8972°N, 99.8189°W)
Time: 15:19:08
(UTC+00:00)

Transit 2A - Pass Details

Date: 23 November 2019
Orbit: 602 x 957 km, 66.7° (Epoch: 06 December)

Event Time Altitude Azimuth Distance (km) Brightness Sun altitude
Rises 23:15:05 0° 310° (NW) 2,914 9.4 -7.0°
Reaches altitude 10° 23:17:50 10° 326° (NW) 1,978 8.3 -7.4°
Maximum altitude 23:21:16 22° 17° (NNE) 1,355 6.9 -7.8°
Enters shadow 23:24:32 11° 67° (ENE) 1,920 7.4 -8.2°
